Flag for Austria Past Weather in Saalfelden am Steinernen Meer, Salzburg, Austria — Yesterday and Last 2 Weeks

Now
23 °F

Snow. Passing clouds.


Feels Like: 23 °F
Forecast: 3 / 22 °F
Wind: 1 mph from North

Location: Salzburg-Flughafen

Current Time: Jan 17, 2017 at 7:58:36 am

Latest Report: Jan 17, 2017 at 7:20 am


Visibility: 1 mi

Pressure: 30.33 "Hg (27.61 "Hg at 738m altitude)

Humidity: 93%

Dew Point: 21 °F

Location of Saalfelden am Steinernen MeerLocation

Past Weather in Saalfelden am Steinernen Meer — Graph

°F

Saalfelden am Steinernen Meer Temperature Yesterday

Maximum temperature yesterday: 27 °F (at 12:20 am)
Minimum temperature yesterday: 23 °F (at 4:50 am)
Average temperature yesterday: 25 °F

High & Low Weather Summary for the Past Weeks

 TemperatureHumidityPressure
High41 °F (Jan 11, 10:50 pm)100% (Jan 2, 8:20 pm)30.66 "Hg (Jan 2, 8:20 pm)
Low0 °F (Jan 7, 12:20 am)41% (Jan 13, 12:20 pm)29.36 "Hg (Jan 13, 3:50 am)
Average26 °F84%30.10 "Hg
* Reported Jan 2 6:20 am — Jan 17 6:50 am, Saalfelden am Steinernen Meer, Weather by CustomWeather, © 2017

Note: Actual official high and low records may vary slightly from our data, if they occured in-between our weather recording intervals... More about our weather records

Advertising

Saalfelden am Steinernen Meer Weather History for the Previous 24 Hours

Scroll right to see more
 ConditionsComfort  
Time TempWeatherWind HumidityBarometerVisibility
6:50 am
Tue, Jan 17
23 °FLight mixture of precip. Passing clouds.1 mph93%30.30 "Hg2 mi
6:20 am23 °FLight mixture of precip. Passing clouds.2 mph93%30.30 "Hg2 mi
5:50 am23 °FLight snow. Passing clouds.1 mph93%30.30 "Hg2 mi
5:20 am23 °FLight snow. Passing clouds.No wind93%30.30 "Hg2 mi
4:50 am23 °FLight snow. Passing clouds.1 mph93%30.27 "Hg2 mi
4:20 am21 °FLight snow. Passing clouds.1 mph100%30.27 "Hg2 mi
3:50 am21 °FLight snow. Passing clouds.3 mph100%30.27 "Hg3 mi
3:20 am23 °FLight freezing rain. Passing clouds.2 mph93%30.27 "Hg3 mi
2:50 am21 °FCold.1 mph100%30.27 "Hg2 mi
2:20 am23 °FLight freezing rain. Passing clouds.3 mph93%30.27 "Hg3 mi
1:50 am23 °FLight freezing rain. Passing clouds.3 mph93%30.27 "Hg4 mi
1:20 am23 °FLight freezing rain. Passing clouds.2 mph93%30.24 "Hg3 mi
12:50 am19 °FLight mixture of precip. Passing clouds.5 mph100%30.24 "Hg2 mi
12:20 am23 °FSnow flurries. Passing clouds.5 mph93%30.24 "Hg4 mi
11:50 pm
Mon, Jan 16
25 °FLight snow. Passing clouds.5 mph93%30.24 "Hg5 mi
11:20 pm25 °FLight snow. Passing clouds.3 mph93%30.24 "Hg4 mi
10:50 pm25 °FLight snow. Passing clouds.5 mph93%30.24 "Hg3 mi
10:20 pm25 °FLight snow. Partly cloudy.6 mph93%30.24 "Hg2 mi
9:50 pm25 °FLight snow. Partly cloudy.5 mph93%30.24 "Hg3 mi
9:20 pm25 °FLight snow. Partly cloudy.5 mph93%30.21 "Hg5 mi
8:50 pm25 °FLight snow. Partly cloudy.2 mph93%30.21 "Hg4 mi
8:20 pm25 °FLight snow. Passing clouds.3 mph93%30.21 "Hg5 mi
7:50 pm25 °FLight snow. Partly cloudy.3 mph93%30.21 "Hg6 mi
7:20 pm25 °FLight snow. Passing clouds.5 mph93%30.18 "Hg6 mi
6:50 pm25 °FLight snow. Partly cloudy.6 mph93%30.18 "Hg6 mi
6:20 pm25 °FLight snow. Partly cloudy.5 mph93%30.18 "Hg4 mi
5:50 pm25 °FLight snow. Partly cloudy.5 mph93%30.18 "Hg4 mi
5:20 pm25 °FLight snow. Passing clouds.6 mph93%30.15 "Hg2 mi
4:50 pm25 °FSnow. Passing clouds.5 mph100%30.15 "Hg1 mi
4:20 pm25 °FCold.5 mph93%30.15 "Hg1 mi
3:50 pm25 °FSnow. Partly sunny.8 mph93%30.15 "Hg1 mi
3:20 pm27 °FSnow. Cloudy.5 mph86%30.12 "Hg1 mi
2:50 pm27 °FSnow. Partly sunny.5 mph86%30.12 "Hg1 mi
2:20 pm27 °FLight snow. Broken clouds.3 mph86%30.12 "Hg2 mi
1:50 pm27 °FLight snow. Broken clouds.5 mph86%30.12 "Hg2 mi
1:20 pm27 °FLight mixture of precip. Broken clouds.No wind86%30.12 "Hg2 mi
12:50 pm25 °FSnow. Broken clouds.2 mph93%30.12 "Hg1 mi
12:20 pm25 °FSnow. Partly sunny.2 mph93%30.12 "Hg1 mi
11:50 am25 °FLight mixture of precip. Broken clouds.3 mph93%30.12 "Hg2 mi
11:20 am25 °FLight mixture of precip. Broken clouds.3 mph86%30.12 "Hg3 mi
10:50 am23 °FLight mixture of precip. Partly sunny.3 mph93%30.15 "Hg3 mi
10:20 am23 °FLight mixture of precip. Partly sunny.5 mph93%30.12 "Hg2 mi
9:50 am23 °FSnow. Cloudy.7 mph93%30.12 "Hg2 mi
9:20 am23 °FLight mixture of precip. Broken clouds.7 mph93%30.12 "Hg2 mi
8:50 am23 °FLight mixture of precip. Broken clouds.6 mph93%30.12 "Hg3 mi
8:20 am23 °FLight snow. Broken clouds.5 mph93%30.12 "Hg3 mi
7:50 am23 °FMixture of precip. Passing clouds.6 mph93%30.12 "Hg2 mi
7:20 am23 °FLight snow. Partly cloudy.6 mph93%30.12 "Hg5 mi
Weather by CustomWeather, © 2017

See weather overviewHow to use our weather pages